Regional Weather Roundup
Issued by NWS Wakefield, VA

Home | Current Version | Previous Version | Text Only | Print | Product List | Glossary Off
Versions: 1 2 3 4 5 6 7 8 9 10 11 12 13 14 15 16 17 18 19 20 21 22 23 24 25 26 27 28 29 30 31 32 33 34 35 36 37 38 39 40 41 42 43 44 45 46 47 48 49 50

000
ASUS41 KAKQ 181515
RWRAKQ

REGIONAL WEATHER ROUNDUP
NATIONAL WEATHER SERVICE WAKEFIELD VA
1100 AM EDT WED OCT 18 2017

Note: "fair" indicates few or no clouds below 12,000 feet with no
significant weather and/or obstructions to visibility. * = Denotes
station may not report precipitation (e.g., rain,snow,etc.),
thunder or fog.

VAZ042-051-052>054-056-181600-
NORTHERN VIRGINIA

CITY           SKY/WX    TMP DP  RH WIND       PRES   REMARKS
WASH NATIONAL  SUNNY     60  45  57 SE5       30.40F
DULLES         SUNNY     59  44  57 CALM      30.40S
FORT BELVOIR   SUNNY     60  43  55 CALM      30.40S
QUANTICO       NOT AVBL
FREDERICKSBRG* SUNNY     60  44  56 CALM      30.40S
STAFFORD*      SUNNY     58  44  60 CALM      30.45S
WARRENTON      SUNNY     61  42  50 CALM      30.40S
CULPEPER*      SUNNY     60  42  51 CALM      30.41F
MANASSAS*      SUNNY     58  45  62 CALM      30.41S
LEESBURG*      SUNNY     61  48  63 CALM      30.40F
WINCHESTER     SUNNY     55  43  62 SW3       30.39F
FRONT ROYAL*   SUNNY     57  41  54 S5        30.39S
LURAY*         SUNNY     55  43  62 CALM      30.41S
$$

VAZ048-049-060>072-079>083-181600-
CENTRAL AND SOUTH CENTRAL VIRGINIA

CITY           SKY/WX    TMP DP  RH WIND       PRES   REMARKS
RICHMOND       SUNNY     61  42  49 CALM      30.42S
CHESTERFIELD*  NOT AVBL
PETERSBURG*    SUNNY     58  40  52 N3        30.42S
HANOVER        SUNNY     59  40  49 CALM      30.43S
TAPPAHANNOCK*  SUNNY     60  36  40 CALM      30.42S
QUINTON*       FAIR      58  45  62 SW3       30.42S
CHARLOTTSVILLE SUNNY     60  43  53 CALM      30.41R
GORDONSVILLE*  SUNNY     59  44  57 CALM      30.40S
ORANGE*        SUNNY     57  45  62 CALM      30.41S
LOUISA*        SUNNY     57  39  51 SW5       30.41R
BUMPASS*       FAIR      59  38  45 CALM      30.41S
FARMVILLE*     SUNNY     60  40  47 CALM      30.41S
CREWE*         FAIR      58  42  56 CALM      30.42S
FORT PICKETT*  FAIR      57  39  51 CALM      30.42S
CHASE CITY*    FAIR      58  41  52 CALM      30.42S
CLARKSVILLE*   FAIR      55  45  67 CALM      30.42R
SOUTH HILL*    SUNNY     57  42  57 N3        30.47S
LAWRENCEVILLE* FAIR      58  38  46 CALM      30.41S
EMPORIA*       SUNNY     57  45  62 CALM      30.43S
$$

VAZ088>098-181600-
SOUTHEAST VIRGINIA

CITY           SKY/WX    TMP DP  RH WIND       PRES   REMARKS
NORFOLK        SUNNY     64  50  60 NE10      30.39S
VIRGINIA BEACH NOT AVBL
NORFOLK NAVAL  MOSUNNY   64  48  56 E10       30.41S
WEST POINT*    SUNNY    N/A N/A N/A CALM      30.43S
SALUDA*        FAIR      58  51  77 W5        30.41S
NEWPORT NEWS   SUNNY     61  45  55 E3        30.41S
LANGLEY AFB    SUNNY     62  47  56 E6        30.40S
FORT EUSTIS    SUNNY     65  49  57 E5        30.38S
WILLIAMSBURG*  SUNNY     61  50  67 CALM      30.42S
HR EXEC AP*    NOT AVBL
FRANKLIN*      SUNNY     59  46  62 N5        30.42S HAZE
US460-WAKEFLD  SUNNY     59  47  64 CALM      30.42R
$$

VAZ020-022-025-037-045-181600-
WEST CENTRAL AND SOUTHWEST VIRGINIA

CITY           SKY/WX    TMP DP  RH WIND       PRES   REMARKS
STAUNTON*      SUNNY     50  40  68 CALM      30.43F
WAYNESBORO*    SUNNY     56  41  57 CALM      30.41S
HOT SPRINGS VA SUNNY     56  26  31 SE8       30.41S
LYNCHBURG      SUNNY     57  41  55 VRB3      30.41R
DANVILLE       SUNNY     56  44  64 CALM      30.42S
SOUTH BOSTON*  FAIR      57  39  51 CALM      30.43R
MARTINSVILLE   SUNNY     55  41  59 CALM      30.44S
ROANOKE        SUNNY     55  42  61 CALM      30.43S
BLACKSBURG     SUNNY     50  43  78 N3        30.44R
DUBLIN*        SUNNY     52  45  77 CALM      30.42S
MARION*        SUNNY     54  40  59 E5        30.42S
HILLSVILLE*    SUNNY     52  37  58 CALM      30.39S
RICHLANDS*     FAIR      54  41  61 CALM      30.38R
WISE*          SUNNY     57  41  54 CALM      30.38S
ABINGDON*      SUNNY     57  42  57 CALM      30.39S
$$

MDZ021>025-VAZ099-100-181600-
SOUTHERN MARYLAND AND THE DELMARVA PENINSULA

CITY           SKY/WX    TMP DP  RH WIND       PRES   REMARKS
PATUXENT RIVER NOT AVBL
BAY BRIDGE APT SUNNY     59  45  58 SW5       30.39S
LEONARDTOWN    NOT AVBL
DOVER          SUNNY     63  45  51 W8        30.36F
GEORGETOWN     SUNNY     61  42  49 NW6       30.39F
EASTON         SUNNY     63  43  48 W7        30.42F
CAMBRIDGE      SUNNY     61  48  63 VRB5      30.40S
SALISBURY      SUNNY     61  47  59 SW6       30.39F
OCEAN CITY     SUNNY     62  47  57 NW6       30.40F
WALLOPS ISLAND SUNNY     63  41  44 N3        30.41S
ACCOMACK*      SUNNY     63  42  47 N3        30.40S
$$

NCZ012>017-030>032-181600-
NORTH CENTRAL AND EASTERN NORTH CAROLINA

CITY           SKY/WX    TMP DP  RH WIND       PRES   REMARKS
ROANOKE RAPIDS FAIR      57  46  67 N3        30.41S
RALEIGH        MOSUNNY   58  39  49 NE9       30.41S
ELIZABETH CITY MOSUNNY   65  52  62 NE13      30.38S
AHOSKIE*       SUNNY     57  47  71 N6        30.41R
EDENTON*       SUNNY     63  54  71 CALM      30.38F
CURRITUCK*     MOSUNNY   63  50  62 NE8       30.40R
KILL DEVIL HLS SUNNY     65  50  56 NE7       30.35S
MANTEO         SUNNY    N/A N/A N/A NE14      30.36S
CAPE HATTERAS  MOSUNNY   69  56  62 NE10G20   30.33S
TARBORO*       NOT AVBL
GOLDSBORO      SUNNY     60  49  65 NE10      30.37S
WASHINGTON     SUNNY     62  52  69 NE10      30.37F
GREENVILLE     SUNNY     61  50  67 N6        30.38F
NEW BERN       SUNNY     64  54  69 NE8       30.37S
WILMINGTON     SUNNY     64  52  64 N8        30.34S
$$

VAZ048-181600-
ELSEWHERE

CITY           SKY/WX    TMP DP  RH WIND       PRES   REMARKS
HARRISBURG PA  SUNNY     57  43  59 NW5       30.37S
BALTIMORE      SUNNY     64  44  48 SW3       30.38S
ANNAPOLIS      SUNNY     62  46  55 CALM      30.39S
ANDREWS AFB    SUNNY     61  42  49 CALM      30.38F
PHILADELPHIA   SUNNY     61  42  49 SW7       30.36F
HENDERSON NC   SUNNY     54  42  63 E3        30.42R
GREENSBORO     MOSUNNY   58  38  47 VRB5      30.40S
ROCKY MOUNT    SUNNY     60  49  66 NE7       30.40F
$$

VAZ100-181600-
MARINE

STATION/POSITION TIME  TEMP    WIND        PRES    WAVE   SWELL
                       AIR SEA DIR/SP/G            HT/PER HT/PER
                 (UTC) (F)     (DEG/KT/KT) (MB)    (FT/S) (FT/S)
BRANDYWINE LGT   1436   58     280/ 10/ 12 1028.9F
CAPE MAY NJ      1448   59 65  280/  8/ 10 1028.2S
LEWES DE         1448   59 64  290/  7/  8 1028.6F
15NM E FENWICK I 1450   60 67  280/  4/  8 1029.4F   2/10   2/10
OCEAN-CITY-INLET 1448   59 66  340/  4/  5 1029.5F
WACHAPREAGUE VA  1448   62 62   30/  4/  7 1029.5S
THOMAS POINT MD  1500   57 68  270/  4/  4   N/A
GOOSES REEF MD   1500   60 69  280/  8/ 10 1034.8    1/ 2
COVE POINT MD    1448   60     260/  4/  8 1030.0S
SOLOMONS ISLAND  1436   61 69  250/  4/  7 1029.2R
BISHOPS HEAD MD  1448   58 60  270/  6/  7 1029.8S
PINEY POINT MD   1448          310/  3/  4   N/A
POTOMAC MD       1500   58 69  290/  6/  8 1029.1    1
CAMBRIDGE MD     1448   63 67              1029.9F
LEWISETTA VA     1448   58 64  270/  3/  4 1029.6S
RAPPAHANNOCK LGT 1448           30/  3/  5 1030.2R
STINGRAY PT      1500   60 69  310/  2/  4 1030.0    1
YORK RVR RNG VA  1448   58     310/  2/  5 1030.1R
YORKTOWN VA      1448   58 70  320/  5/  6 1029.4R
JAMESTOWN VA     1500      71  310/  4/  6   N/A     0
DOMINION TERM VA 1448   62     260/  2/  6 1029.6R
KIPTOPEKE VA     1448      65   80/  4/  7   N/A
CAPE HENRY VA    1448   61      20/ 10/ 12   N/A
WILLOUBY STN VA  1436   60      50/  8/ 10 1029.4R
S CRANEY ISL VA  1448   62      90/  9/ 13 1029.1R
CAPE HENRY BUOY  1500      70                N/A     3/10   2/11
1ST LANDING BUOY 1500   61 69              1029.4    2/ 3
CAPE CHARLES BUO 1451      70                N/A     3/10   2/11
64NM E OF VA BCH 1450   63 67   50/ 12/ 16 1028.8R   5/ 9   3/ 9
DUCK PIER NC     1448   63 68   40/ 14/ 17 1028.0F
44100 DUCK FRF   1435      70                N/A     4/ 7   2/11
44056 DUCK FRF   1430      70                N/A     4/ 8   2/11
OREGON INLET NC  1436   65 64   40/ 11/ 16 1027.5S
HATTERAS NC      1448   65 66   30/ 12/ 18 1026.9R
DIAMOND SHLS NC  1450   69 81   20/ 19/ 23 1025.8R   6/ 8   3/21
CAPE LOOKOUT NC  1500   67      30/ 17/ 19 1026.6R
$$



USA.gov is the U.S. government's official web portal to all federal, state and local government web resources and services.